DW2380 Weather Reports


time (UTC)temp
C
wind
direction
speed
KPH
gust
KPH
rain 1hr
cm
rain 24hr
cm
rain mn
cm
humidity
%
barometer
mb
20260906064040 11 306 4.8 14.5 0.00 0.00 0.00 87 1007.3
20260906063539 11 336 3.2 14.5 0.00 0.00 0.00 88 1007.3
20260906063058 10 340 4.8 12.9 0.00 0.00 0.00 89 1007.3
20260906062538 10 275 4.8 12.9 0.00 0.00 0.00 90 1007.2
20260906062039 10 290 3.2 11.3 0.00 0.00 0.00 92 1007.2
20260906061557 10 295 4.8 11.3 0.00 0.00 0.00 92 1007.1
20260906061039 10 288 3.2 8.0 0.00 0.00 0.00 93 1007.2
20260906060537 9 290 1.6 4.8 0.00 0.00 0.00 93 1007.1
20260906060054 9 315 1.6 4.8 0.00 0.00 0.00 94 1007.0
20260906055537 8 314 0.0 3.2 0.00 0.00 0.00 94 1007.0
20260906055037 8 0 0.0 3.2 0.00 0.00 0.00 94 1007.1
20260906054601 8 238 0.0 3.2 0.00 0.00 0.00 94 1006.9
20260906054037 7 0 0.0 3.2 0.00 0.00 0.00 94 1007.0
20260906053537 7 0 0.0 6.4 0.00 0.00 0.00 94 1006.9
20260906053059 7 0 1.6 6.4 0.00 0.00 0.00 94 1006.9
20260906052538 7 248 0.0 4.8 0.00 0.00 0.00 94 1006.9
20260906052038 7 315 1.6 4.8 0.00 0.00 0.00 94 1006.8
20260906051556 7 302 0.0 3.2 0.00 0.00 0.00 94 1006.7
20260906051042 7 0 0.0 3.2 0.00 0.00 0.00 94 1006.7
20260906050537 6 302 0.0 4.8 0.00 0.00 0.00 94 1006.6
20260906050113 6 0 0.0 4.8 0.00 0.00 0.00 94 1006.4
20260906045536 6 0 0.0 1.6 0.00 0.00 0.00 94 1006.5
20260906045037 6 0 0.0 3.2 0.00 0.00 0.00 94 1006.4
20260906044557 6 0 0.0 3.2 0.00 0.00 0.00 94 1006.3
20260906044039 6 302 0.0 3.2 0.00 0.00 0.00 94 1006.3
20260906043537 6 0 0.0 0.0 0.00 0.00 0.00 94 1006.4
20260906043057 5 0 0.0 0.0 0.00 0.00 0.00 94 1006.2
20260906042537 5 0 0.0 0.0 0.00 0.00 0.00 94 1006.1
20260906042037 5 0 0.0 0.0 0.00 0.00 0.00 94 1006.1
20260906041554 5 0 0.0 0.0 0.00 0.00 0.00 94 1006.0
20260906041038 5 0 0.0 0.0 0.00 0.00 0.00 93 1006.0
20260906040540 5 0 0.0 3.2 0.00 0.00 0.00 93 1006.0
20260906040114 5 0 0.0 3.2 0.00 0.00 0.00 93 1005.9
20260906035539 5 311 1.6 3.2 0.00 0.00 0.00 93 1005.8
20260906035038 5 0 0.0 6.4 0.00 0.00 0.00 93 1005.7
20260906034605 5 5 1.6 6.4 0.00 0.00 0.00 93 1005.7
20260906034037 5 0 0.0 4.8 0.00 0.00 0.00 93 1005.7
20260906033537 5 0 0.0 4.8 0.00 0.00 0.00 93 1005.8
20260906033058 5 0 0.0 3.2 0.00 0.00 0.00 93 1005.7
20260906032537 5 0 0.0 3.2 0.00 0.00 0.00 93 1005.7
20260906032038 5 0 0.0 3.2 0.00 0.00 0.00 93 1005.6
20260906031600 6 0 0.0 0.0 0.00 0.00 0.00 93 1005.6
20260906031037 6 0 0.0 4.8 0.00 0.00 0.00 93 1005.4
20260906030538 6 0 0.0 4.8 0.00 0.00 0.00 93 1005.4
20260906025537 6 0 0.0 4.8 0.00 0.00 0.00 93 1005.3
20260906025039 6 0 0.0 8.0 0.00 0.00 0.00 93 1005.2
20260906024604 6 306 3.2 11.3 0.00 0.00 0.00 93 1005.1
20260906024040 6 304 1.6 11.3 0.00 0.00 0.00 93 1005.1
20260906023539 6 355 3.2 8.0 0.00 0.00 0.00 93 1005.0
20260906023055 7 343 3.2 8.0 0.00 0.00 0.00 93 1004.9
20260906022539 7 325 3.2 9.7 0.00 0.00 0.00 93 1004.9
20260906022041 7 345 4.8 12.9 0.00 0.00 0.00 93 1004.8
20260906021604 6 311 3.2 12.9 0.00 0.00 0.00 94 1004.8
20260906021037 6 333 3.2 9.7 0.00 0.00 0.00 93 1004.7
20260906020538 6 5 1.6 8.0 0.00 0.00 0.00 93 1004.6
20260906020107 6 324 1.6 6.4 0.00 0.00 0.00 93 1004.5
20260906015537 5 316 1.6 4.8 0.00 0.00 0.00 93 1004.4
20260906015039 5 0 0.0 1.6 0.00 0.00 0.00 92 1004.2
20260906014600 5 0 0.0 3.2 0.00 0.00 0.00 92 1004.2
20260906014037 6 0 0.0 3.2 0.00 0.00 0.00 92 1004.2
20260906013537 6 0 0.0 6.4 0.00 0.00 0.00 92 1004.2
20260906013056 6 350 1.6 8.0 0.00 0.00 0.00 92 1004.1
20260906012537 6 0 1.6 8.0 0.00 0.00 0.00 92 1004.0
20260906012038 6 324 1.6 8.0 0.00 0.00 0.00 92 1004.0
20260906011558 6 329 1.6 8.0 0.00 0.00 0.00 92 1003.9
20260906011042 6 320 1.6 4.8 0.00 0.00 0.00 92 1004.0
20260906010537 6 319 0.0 4.8 0.00 0.00 0.00 92 1003.8
20260906010106 7 0 0.0 8.0 0.00 0.00 0.00 92 1003.8
20260906005537 7 334 1.6 8.0 0.00 0.00 0.00 92 1003.8
20260906005037 7 329 3.2 8.0 0.00 0.00 0.00 91 1003.8
20260906004555 7 317 1.6 6.4 0.00 0.00 0.00 91 1003.8
20260906004038 7 331 1.6 6.4 0.00 0.00 0.00 92 1003.7
20260906003538 7 338 1.6 8.0 0.00 0.00 0.00 91 1003.7
20260906003100 7 337 0.0 8.0 0.00 0.00 0.00 91 1003.6
20260906002537 7 329 1.6 6.4 0.00 0.00 0.00 91 1003.6
20260906002038 7 269 1.6 8.0 0.00 0.00 0.00 91 1003.5
20260906001609 7 311 1.6 8.0 0.00 0.00 0.00 91 1003.5
20260906001037 7 344 1.6 9.7 0.00 0.00 0.00 91 1003.4
20260906000537 7 317 1.6 9.7 0.00 0.00 0.00 91 1003.4
20260906000056 7 316 3.2 16.1 0.00 0.00 0.00 91 1003.2
20260905235538 7 333 3.2 16.1 0.00 0.00 0.00 91 1003.2
20260905235038 7 316 4.8 16.1 0.00 0.00 0.00 90 1003.1
20260905234549 8 347 3.2 9.7 0.00 0.00 0.00 90 1003.1
20260905234038 8 322 3.2 8.0 0.00 0.00 0.00 90 1003.0
20260905233539 8 326 3.2 9.7 0.00 0.00 0.00 90 1003.0
20260905233109 8 323 3.2 9.7 0.00 0.00 0.00 89 1002.9
20260905232538 8 314 1.6 8.0 0.00 0.00 0.00 89 1002.9
20260905232036 8 0 1.6 14.5 0.00 0.00 0.00 89 1002.9
20260905231558 8 322 4.8 14.5 0.00 0.00 0.00 89 1002.8
20260905231037 8 347 3.2 14.5 0.00 0.00 0.00 89 1002.8
20260905230538 8 324 4.8 14.5 0.00 0.00 0.00 89 1002.8
20260905230056 8 24 4.8 12.9 0.00 0.00 0.00 89 1002.7
20260905225539 8 330 3.2 12.9 0.00 0.00 0.00 89 1002.6
20260905225038 8 271 4.8 14.5 0.00 0.00 0.00 89 1002.6
20260905224608 8 321 6.4 14.5 0.00 0.00 0.00 89 1002.6
20260905224040 9 330 3.2 12.9 0.00 0.00 0.00 88 1002.5
20260905223538 9 11 4.8 12.9 0.00 0.00 0.00 88 1002.4
20260905223058 9 320 3.2 12.9 0.00 0.00 0.00 89 1002.4
20260905222536 9 324 3.2 11.3 0.00 0.00 0.00 88 1002.3
20260905222040 9 339 3.2 11.3 0.00 0.00 0.00 88 1002.1
20260905221559 9 335 3.2 9.7 0.00 0.00 0.00 92 1002.1
20260905221038 9 360 1.6 11.3 0.00 0.00 0.00 88 1002.1
20260905220540 10 311 4.8 17.7 0.00 0.00 0.00 88 1002.1
20260905215540 10 360 8.0 17.7 0.00 0.00 0.00 87 1001.9
20260905215037 10 5 3.2 12.9 0.00 0.00 0.00 87 1001.8
20260905214601 10 328 4.8 12.9 0.00 0.00 0.00 87 1001.7
20260905214038 10 325 4.8 14.5 0.00 0.00 0.00 87 1001.7
20260905213538 10 316 4.8 14.5 0.00 0.00 0.00 87 1001.7
20260905213103 10 15 6.4 14.5 0.00 0.00 0.00 87 1001.6
20260905212538 10 346 3.2 12.9 0.00 0.00 0.00 87 1001.6
20260905212037 10 309 4.8 17.7 0.00 0.00 0.00 87 1001.5
20260905211553 10 360 4.8 17.7 0.00 0.00 0.00 88 1001.4
20260905211038 10 311 3.2 12.9 0.00 0.00 0.00 88 1001.3
20260905210537 10 284 4.8 14.5 0.00 0.00 0.00 89 1001.3
20260905210110 10 351 4.8 14.5 0.00 0.00 0.00 89 1001.3
20260905205537 10 315 6.4 14.5 0.00 0.00 0.00 90 1001.2
20260905205037 10 5 4.8 16.1 0.00 0.00 0.00 91 1000.9
20260905204556 10 16 3.2 16.1 0.00 0.00 0.00 91 1001.0
20260905204041 10 360 3.2 11.3 0.00 0.00 0.00 92 1000.9
20260905203538 10 329 3.2 11.3 0.00 0.00 0.00 92 1000.8
20260905203101 11 360 3.2 11.3 0.00 0.00 0.00 93 1000.7
20260905202537 10 10 1.6 9.7 0.00 0.00 0.00 93 1000.6
20260905202038 10 355 3.2 9.7 0.00 0.00 0.00 93 1000.5
20260905201605 10 360 4.8 12.9 0.00 0.00 0.00 93 1000.4
20260905201037 10 346 4.8 12.9 0.00 0.00 0.00 93 1000.4
20260905200537 10 5 3.2 8.0 0.00 0.00 0.00 93 1000.3
20260905200123 10 5 1.6 6.4 0.00 0.00 0.00 93 1000.2
20260905195538 10 360 3.2 6.4 0.00 0.00 0.00 94 1000.2
20260905195038 10 360 1.6 6.4 0.00 0.00 0.00 93 1000.0
20260905194553 10 324 1.6 6.4 0.00 0.00 0.00 93 1000.0
20260905194038 9 355 1.6 4.8 0.00 0.00 0.00 93 999.9
20260905193537 9 36 1.6 3.2 0.00 0.00 0.00 92 999.8
20260905193054 9 0 0.0 0.0 0.00 0.00 0.00 92 999.8
20260905192538 9 0 0.0 0.0 0.00 0.00 0.00 92 999.7
20260905192038 9 0 0.0 0.0 0.00 0.00 0.00 92 999.7
20260905191556 9 0 0.0 0.0 0.00 0.00 0.00 92 999.8
20260905191037 10 0 0.0 0.0 0.00 0.00 0.00 92 999.7
20260905190539 10 0 0.0 0.0 0.00 0.00 0.00 92 999.7
20260905190054 10 0 0.0 0.0 0.00 0.00 0.00 92 999.7
20260905185542 10 0 0.0 0.0 0.00 0.00 0.00 92 999.7
20260905185042 10 0 0.0 0.0 0.00 0.00 0.00 91 999.6
20260905184611 10 0 0.0 0.0 0.00 0.00 0.00 91 999.6
20260905184038 10 0 0.0 0.0 0.00 0.00 0.00 91 999.6
20260905183538 10 0 0.0 1.6 0.00 0.00 0.00 91 999.5
20260905183058 10 0 0.0 1.6 0.00 0.00 0.00 90 999.5
20260905182541 10 0 0.0 1.6 0.00 0.00 0.00 90 999.5
20260905182038 11 0 0.0 0.0 0.00 0.00 0.00 89 999.4
20260905181555 11 0 0.0 3.2 0.00 0.00 0.00 89 999.4
20260905181039 11 0 0.0 3.2 0.00 0.00 0.00 89 999.4
20260905180540 11 332 0.0 4.8 0.00 0.00 0.00 88 999.4
20260905180100 12 332 1.6 4.8 0.00 0.00 0.00 88 999.3
20260905175538 12 332 1.6 6.4 0.00 0.00 0.00 88 999.2
20260905175038 12 328 1.6 6.4 0.00 0.00 0.00 88 999.2
20260905174604 12 327 1.6 6.4 0.00 0.00 0.00 88 999.2
20260905174041 12 325 0.0 4.8 0.00 0.00 0.00 87 999.1
20260905173538 12 0 0.0 0.0 0.00 0.00 0.00 87 999.1
20260905173055 12 0 0.0 0.0 0.00 0.00 0.00 87 999.0
20260905172538 12 0 0.0 0.0 0.00 0.00 0.00 86 998.9
20260905172038 13 0 0.0 0.0 0.00 0.00 0.00 85 998.9
20260905171604 13 0 0.0 0.0 0.00 0.00 0.00 84 998.9
20260905171039 13 0 0.0 4.8 0.00 0.00 0.00 83 998.7
20260905170538 13 0 0.0 6.4 0.00 0.00 0.00 81 998.7
20260905170057 14 350 3.2 8.0 0.00 0.00 0.00 80 998.6
20260905165538 14 318 3.2 8.0 0.00 0.00 0.00 80 998.6
20260905165039 14 319 1.6 8.0 0.00 0.00 0.00 79 998.5
20260905164557 14 5 4.8 11.3 0.00 0.00 0.00 78 998.4
20260905164038 15 323 4.8 11.3 0.00 0.00 0.00 77 998.4
20260905163539 15 340 1.6 12.9 0.00 0.00 0.00 77 998.3
20260905163056 15 331 4.8 12.9 0.00 0.00 0.00 75 998.3
20260905162541 15 336 4.8 12.9 0.00 0.00 0.00 74 998.2
20260905162039 15 329 4.8 12.9 0.00 0.00 0.00 74 998.2
20260905161615 15 294 3.2 12.9 0.00 0.00 0.00 73 998.0
20260905161038 15 304 3.2 14.5 0.00 0.00 0.00 72 998.0
20260905160538 15 325 4.8 16.1 0.00 0.00 0.00 72 997.9
20260905160054 15 309 4.8 16.1 0.00 0.00 0.00 72 997.9
20260905155538 15 301 8.0 19.3 0.00 0.00 0.00 72 997.9
20260905155037 15 325 8.0 19.3 0.00 0.00 0.00 72 997.8
20260905154600 15 289 6.4 14.5 0.00 0.00 0.00 74 997.7
20260905154039 16 277 4.8 11.3 0.00 0.00 0.00 74 997.7
20260905153539 16 302 3.2 11.3 0.00 0.00 0.00 74 997.7
20260905153056 16 295 4.8 11.3 0.00 0.00 0.00 74 997.6
20260905152538 16 320 3.2 11.3 0.00 0.00 0.00 73 997.5
20260905152039 16 317 3.2 11.3 0.00 0.00 0.00 74 997.5
20260905151601 15 322 4.8 12.9 0.00 0.00 0.00 73 997.4
20260905151037 15 325 3.2 12.9 0.00 0.00 0.00 73 997.4
20260905150538 15 306 4.8 12.9 0.00 0.00 0.00 73 997.4
20260905150057 15 280 4.8 12.9 0.00 0.00 0.00 72 997.4
20260905145539 15 318 3.2 16.1 0.00 0.00 0.00 72 997.5
20260905145041 15 313 6.4 16.1 0.00 0.00 0.00 72 997.4
20260905144557 15 291 6.4 22.5 0.00 0.00 0.00 71 997.4
20260905144038 15 317 9.7 22.5 0.00 0.00 0.00 69 997.3
20260905143538 15 275 4.8 24.1 0.00 0.00 0.00 70 997.3
20260905143057 15 321 9.7 24.1 0.00 0.00 0.00 70 997.2
20260905142538 15 321 12.9 24.1 0.00 0.00 0.00 70 997.1
20260905142039 16 351 9.7 19.3 0.00 0.00 0.00 70 997.1
20260905141555 16 326 6.4 16.1 0.00 0.00 0.00 70 997.0
20260905141038 16 314 9.7 17.7 0.00 0.00 0.00 70 997.0
20260905140538 16 302 8.0 22.5 0.00 0.00 0.00 69 997.0
20260905140105 16 318 9.7 22.5 0.00 0.00 0.00 68 996.9
20260905135540 16 312 11.3 27.4 0.00 0.00 0.00 66 996.8
20260905135040 17 318 12.9 27.4 0.00 0.00 0.00 63 996.8
20260905134606 17 301 8.0 16.1 0.00 0.00 0.00 58 996.7
20260905134040 17 330 6.4 14.5 0.00 0.00 0.00 56 996.5
20260905133538 18 341 6.4 16.1 0.00 0.00 0.00 55 996.5
20260905133100 18 316 6.4 16.1 0.00 0.00 0.00 55 996.4
20260905132538 18 329 8.0 20.9 0.00 0.00 0.00 55 996.3
20260905132039 18 348 11.3 20.9 0.00 0.00 0.00 57 996.4
20260905131559 18 325 8.0 19.3 0.00 0.00 0.00 55 996.3
20260905131038 18 340 4.8 19.3 0.00 0.00 0.00 55 996.2
20260905130537 18 320 8.0 19.3 0.00 0.00 0.00 55 996.2
20260905130055 18 316 11.3 19.3 0.00 0.00 0.00 55 996.2
20260905125538 18 295 4.8 11.3 0.00 0.25 0.00 60 996.3
20260905125038 18 108 1.6 11.3 0.00 0.25 0.00 59 996.2
20260905124605 17 17 1.6 11.3 0.00 0.25 0.00 60 996.2
20260905124037 17 289 4.8 11.3 0.00 0.25 0.00 61 996.2
20260905123538 16 329 3.2 12.9 0.00 0.25 0.00 61 996.2
20260905123107 16 330 4.8 14.5 0.00 0.25 0.00 61 996.2
20260905122540 17 311 3.2 14.5 0.00 0.25 0.00 62 996.2
20260905122036 17 323 4.8 16.1 0.00 0.25 0.00 61 996.3
20260905121557 17 296 6.4 16.1 0.00 0.25 0.00 63 996.2
20260905121039 16 267 3.2 8.0 0.00 0.25 0.00 63 996.2
20260905120539 16 329 3.2 11.3 0.00 0.25 0.00 63 996.2
20260905120104 16 314 3.2 11.3 0.00 0.25 0.00 63 996.2
20260905115537 16 340 3.2 17.7 0.00 0.25 0.00 63 996.1
20260905115037 16 311 4.8 17.7 0.00 0.25 0.00 64 996.1
20260905114608 16 323 8.0 22.5 0.00 0.25 0.00 64 996.0
20260905114038 16 336 9.7 24.1 0.00 0.25 0.00 62 996.0
20260905113539 17 318 11.3 24.1 0.00 0.25 0.00 62 996.1
20260905113108 17 324 4.8 19.3 0.00 0.25 0.00 61 995.9
20260905112538 17 325 8.0 19.3 0.00 0.25 0.00 57 995.9
20260905112038 18 34 4.8 16.1 0.00 0.25 0.00 59 995.8
20260905111611 18 327 8.0 16.1 0.00 0.25 0.00 59 995.7
20260905111038 18 336 4.8 16.1 0.00 0.25 0.00 60 995.7
20260905110539 18 329 1.6 16.1 0.00 0.25 0.00 61 995.7
20260905110101 18 319 3.2 12.9 0.00 0.25 0.00 61 995.7
20260905105538 17 346 4.8 14.5 0.00 0.58 0.00 64 995.6
20260905105057 17 321 3.2 14.5 0.00 0.58 0.00 61 995.6
20260905104552 17 321 6.4 14.5 0.00 0.58 0.00 62 995.6
20260905104038 17 0 3.2 17.7 0.00 0.58 0.00 62 995.5
20260905103538 17 325 8.0 17.7 0.00 0.58 0.00 63 995.5
20260905103054 17 30 3.2 20.9 0.00 0.58 0.00 66 995.5
20260905102540 17 318 11.3 20.9 0.00 0.58 0.00 64 995.4
20260905102038 17 299 4.8 17.7 0.00 0.58 0.00 64 995.4
20260905101552 17 320 11.3 17.7 0.00 0.58 0.00 65 995.3
20260905101038 17 318 4.8 14.5 0.00 0.58 0.00 64 995.2
20260905100538 17 25 3.2 11.3 0.00 0.58 0.00 70 995.2
20260905100105 16 5 3.2 14.5 0.00 0.58 0.00 65 995.2
20260905095538 16 30 6.4 14.5 0.00 0.58 0.00 66 995.2
20260905095039 16 10 3.2 9.7 0.00 0.58 0.00 70 995.2
20260905094606 16 11 3.2 11.3 0.00 0.58 0.00 68 995.2
20260905094038 16 360 3.2 12.9 0.00 0.58 0.00 68 995.1
20260905093539 16 19 6.4 12.9 0.00 0.58 0.00 67 995.1
20260905093055 17 344 1.6 8.0 0.00 0.58 0.00 68 995.1
20260905092539 17 0 1.6 9.7 0.00 0.58 0.00 73 995.0
20260905092038 17 44 3.2 14.5 0.00 0.58 0.00 76 995.1
20260905091602 16 92 4.8 14.5 0.00 0.58 0.00 73 995.1
20260905091038 16 82 4.8 14.5 0.00 0.58 0.00 75 995.0
20260905090538 16 43 3.2 8.0 0.00 0.58 0.00 76 995.0
20260905090059 -17 73 1.6 8.0 0.00 0.58 0.00 75 995.0
20260905085538 -17 96 3.2 9.7 0.00 0.58 0.00 995.0
20260905085039 -17 71 4.8 9.7 0.00 0.58 0.00 995.0
20260905084555 -17 74 1.6 8.0 0.00 0.58 0.00 994.9
20260905084039 -17 275 0.0 6.4 0.00 0.58 0.00 994.9
20260905083541 -17 335 3.2 8.0 0.00 0.58 0.00 994.8
20260905083055 -17 9 3.2 8.0 0.00 0.58 0.00 994.8
20260905082538 -17 55 0.0 4.8 0.00 0.58 0.00 994.8
20260905082036 -17 0 1.6 4.8 0.00 0.58 0.00 994.9
20260905081601 -17 49 1.6 4.8 0.00 0.58 0.00 994.9
20260905081038 -17 50 1.6 4.8 0.00 0.58 0.00 994.9
20260905080539 -17 80 1.6 4.8 0.00 0.58 0.00 994.9
20260905075538 -67 330 0.0 4.8 0.00 0.58 0.00 994.8
20260905075043 -67 0 0.0 3.2 0.00 0.58 0.00 994.8
20260905074558 -67 31 0.0 3.2 0.00 0.58 0.00 994.7
20260905074038 -67 40 0.0 8.0 0.00 0.58 0.00 994.7
20260905073538 -67 0 1.6 8.0 0.00 0.58 0.00 994.7
20260905073100 -67 39 0.0 6.4 0.00 0.58 0.00 994.7
20260905072539 -67 33 1.6 6.4 0.00 0.58 0.00 994.7
20260905072040 -67 48 0.0 8.0 0.00 0.58 0.00 994.7
20260905071559 -67 28 4.8 8.0 0.00 0.58 0.00 95 994.7
20260905071042 8 49 3.2 6.4 0.00 0.58 0.00 95 994.7
20260905070538 8 39 1.6 4.8 0.00 0.58 0.00 95 994.7
20260905065540 7 60 0.0 4.8 0.00 0.58 0.00 95 994.5
20260905065039 7 0 1.6 4.8 0.00 0.58 0.00 95 994.6
20260905064559 7 27 1.6 4.8 0.00 0.58 0.00 95 994.6